Location: ????????
(54.7121°N, 38.5701°E)
Time: 11:40:36
(UTC+00:00)

Daily predictions for brighter satellites

Satellite Brightness Start Highest point End
(mag) Time Altitude Azimuth Time Altitude Azimuth Time Altitude Azimuth
Cosmos 1464 Rocket 4.3 13:30:33 10° SSW 13:36:42 72° WNW 13:42:50 10° N
Cosmos 2369 Rocket 2.9 13:33:47 10° WSW 13:39:17 51° NW 13:44:51 10° NNE
IRS-1D 4.2 13:35:13 10° S 13:40:05 59° WSW 13:44:58 10° NNW
Cosmos 773 Rocket 4.0 13:36:14 10° NNW 13:41:29 76° ENE 13:46:43 10° SSE
Cosmos 2279 Rocket 4.4 13:37:49 10° SSE 13:43:37 43° E 13:49:27 10° NNE
CZ-2D R/B 4.3 13:42:45 10° ESE 13:44:48 16° ENE 13:46:52 10° NNE
Cosmos 1092 Rocket 4.1 13:39:25 10° NNW 13:45:37 86° W 13:51:45 10° S
Iridium 45 4.2 13:43:47 10° S 13:46:58 85° E 13:50:15 10° N
YAOGAN 1 4.3 13:47:33 10° ENE 13:49:17 12° NE 13:51:00 10° NNE
NOSS 2-2 (D) 3.9 13:47:19 10° SSW 13:50:11 29° SE 13:52:52 10° ENE
Cosmos 1867 3.6 13:45:21 10° NW 13:50:50 71° NE 13:56:17 10° SE
Cosmos 2278 Rocket 4.0 13:47:08 10° WNW 13:51:04 19° NNW 13:55:01 10° NNE
Cosmos 1697 Rocket 4.2 13:48:08 10° SE 13:51:48 18° E 13:55:28 10° ENE
Intercosmos 24 3.7 13:48:52 10° N 13:52:52 63° ENE 13:56:23 10° SSE
Cosmos 2151 3.4 13:49:01 10° N 13:52:55 37° ENE 13:56:49 10° SE
Cosmos 1607 4.1 13:47:07 10° NW 13:53:22 86° SW 13:59:40 10° SE
Cosmos 1743 2.6 13:52:53 10° N 13:56:01 41° ENE 13:59:06 10° SE
Cosmos 2084 3.6 13:57:15 10° WSW 14:01:25 62° NNW 14:05:23 11° NE
MOS 1 Rocket 4.2 13:56:59 10° ESE 14:01:25 32° ENE 14:06:03 10° N
NOSS 3-2 (A) 3.4 13:56:43 10° SSW 14:01:44 57° SE 14:07:44 10° NE
Cosmos 1900 4.3 13:57:23 10° NW 14:02:30 81° NE 14:07:30 10° SE
NOSS 3-2 (C) 4.2 13:59:18 10° S 14:03:41 29° ESE 14:08:26 11° ENE
IGS 5A 3.3 13:59:55 10° SSE 14:03:51 66° ENE 14:07:49 10° N
SL-08 ROCKET BODY 4.4 13:59:58 10° N 14:05:56 74° ENE 14:11:57 10° SSE
ARIANE 5 R/B 2.8 14:01:31 10° SE 14:06:20 45° ENE 14:11:14 10° N
Cosmos 1356 Rocket 3.4 14:04:04 10° SSW 14:08:09 82° WNW 14:12:16 10° NNE
Cosmos 1825 Rocket 4.2 14:06:11 10° N 14:10:08 32° ENE 14:14:02 10° SE
Cosmos 1656 3.9 14:04:39 10° S 14:10:09 56° ESE 14:15:43 10° NE
NOSS 2-2 (E) 3.6 14:07:11 10° SSW 14:10:11 35° SE 14:12:22 14° ENE
SAR-Lupe-4 4.1 14:08:04 10° SE 14:11:19 34° ENE 14:14:35 10° N
Cosmos 2084 Rocket 3.8 14:07:07 10° NW 14:11:20 69° SW 14:15:30 10° SE
Cosmos 2208 Rocket 4.4 14:07:03 10° NNW 14:12:12 68° WSW 14:17:20 10° SSE
Cosmos 1758 Rocket 3.5 14:09:11 10° NNW 14:13:32 89° E 14:17:49 10° S
Resurs 01 Rocket 3.6 14:14:57 10° NE 14:14:57 10° NE 14:15:09 10° NE
CZ-4C R/B 3.0 14:07:38 10° NW 14:14:14 81° SW 14:22:37 10° SE
Meteor 1-20 Rocket 4.1 14:09:40 10° N 14:15:07 62° ENE 14:20:31 10° SSE
Cosmos 2266 Rocket 4.0 14:09:27 10° N 14:15:35 58° ENE 14:21:33 10° SSE
Cosmos 1782 2.6 14:12:45 10° S 14:16:17 56° E 14:19:49 10° NNE
UNK 4.3 14:13:15 10° NNE 14:17:31 36° E 14:21:43 10° SSE
Cosmos 2098 Rocket 3.3 14:14:35 10° S 14:18:49 55° E 14:23:48 10° NNE
Cosmos 2082 4.4 14:15:28 10° NNW 14:20:38 33° NE 14:25:47 10° ESE
SPOT 1/Viking Rocket 4.2 14:18:19 10° ESE 14:22:57 34° ENE 14:27:36 10° N
CBERS-1 4.3 14:20:33 10° S 14:25:40 73° WSW 14:30:48 10° NNW
CZ-2D R/B 4.5 14:22:50 10° ESE 14:26:13 24° ENE 14:29:34 10° N
Cosmos 2297 Rocket 2.8 14:20:52 10° NW 14:26:30 63° WSW 14:32:04 10° SSE
Cosmos 783 Rocket 4.5 14:21:29 10° NNW 14:26:50 83° ENE 14:32:08 10° SSE
SMAP 3.0 14:24:10 10° SSE 14:28:49 76° ENE 14:33:30 10° NNW
Cosmos 1076 Rocket 4.2 14:25:04 10° N 14:28:58 32° ENE 14:32:51 10° SE
IRS-P3 4.3 14:23:59 10° SE 14:29:06 50° ENE 14:34:13 10° N
Cosmos 405 Rocket 4.1 14:26:18 10° NNW 14:29:18 34° W 14:32:15 10° SSW
NOSS 2-2 (C) 2.8 14:28:52 10° WSW 14:31:55 65° NW 14:33:48 20° NE
Landsat 7 3.7 14:29:03 10° SSE 14:33:40 67° ENE 14:38:19 10° N
Cosmos 1626 Rocket 4.5 14:31:35 10° NNW 14:35:48 50° W 14:39:58 10° S
Cosmos 1538 Rocket 4.2 14:31:39 10° NNW 14:36:46 48° NE 14:41:54 10° SE
Meteor 1-28 Rocket 2.8 14:36:41 10° NNE 14:40:03 86° ESE 14:43:24 10° SSW
[s.n.66845] 2.6 14:39:39 10° NNW 14:41:46 26° NNE 14:41:46 26° NNE
[s.n.66847] 2.6 14:40:06 10° NNW 14:42:12 27° NNE 14:42:12 27° NNE
[s.n.66846] 2.6 14:40:31 10° NNW 14:42:37 27° NNE 14:42:37 27° NNE
[s.n.66843] 2.6 14:41:03 10° NNW 14:43:09 27° NNE 14:43:09 27° NNE
CENTAUR R/B 3.0 14:37:41 10° WSW 14:43:47 62° NNW 14:49:50 17° NE
[s.n.66844] 2.6 14:41:30 10° NNW 14:43:35 27° NNE 14:43:35 27° NNE
[s.n.66842] 2.6 14:42:01 10° NNW 14:44:06 27° NNE 14:44:06 27° NNE
[s.n.66841] 2.6 14:42:28 10° NNW 14:44:34 28° NNE 14:44:34 28° NNE
[s.n.66840] 2.6 14:42:58 10° NNW 14:45:03 28° NNE 14:45:03 28° NNE
[s.n.66838] 2.6 14:43:27 10° NNW 14:45:32 28° NNE 14:45:32 28° NNE
Cosmos 2219 3.4 14:40:50 10° NNW 14:46:24 49° NE 14:51:59 10° ESE
[s.n.66839] 2.6 14:43:57 10° NNW 14:46:01 28° NNE 14:46:01 28° NNE
SL-16 R/B 2.6 14:40:26 10° NNE 14:46:42 83° WNW 14:52:55 10° SSW
[s.n.66837] 2.6 14:44:24 10° NNW 14:46:28 28° NNE 14:46:28 28° NNE
[s.n.66836] 2.6 14:44:53 10° NNW 14:46:57 29° NNE 14:46:57 29° NNE
[s.n.66835] 2.6 14:45:24 10° NNW 14:47:27 29° NNE 14:47:27 29° NNE
Thor Agena Rocket 4.0 14:42:44 10° S 14:47:55 66° WSW 14:53:03 10° NNW
Cosmos 1606 Rocket 3.9 14:43:56 10° SSE 14:48:08 44° E 14:51:39 14° NNE
[s.n.66834] 2.6 14:45:53 10° NNW 14:47:56 29° NNE 14:47:56 29° NNE
[s.n.66833] 2.6 14:46:19 10° NNW 14:48:22 29° NNE 14:48:22 29° NNE
Cosmos 1315 Rocket 4.4 14:45:44 10° SW 14:49:11 31° WNW 14:52:38 10° N
[s.n.66832] 2.5 14:46:51 10° NNW 14:48:54 29° NNE 14:48:54 29° NNE
Cosmos 1503 Rocket 4.0 14:44:18 10° S 14:49:25 60° ESE 14:53:23 17° NE
[s.n.66831] 2.5 14:47:17 10° NNW 14:49:19 30° NNE 14:49:19 30° NNE
[s.n.66830] 2.5 14:47:42 10° NNW 14:49:44 30° NNE 14:49:44 30° NNE
[s.n.66828] 2.5 14:48:07 10° NNW 14:50:09 30° NNE 14:50:09 30° NNE
[s.n.66829] 2.5 14:48:39 10° NNW 14:50:41 30° NNE 14:50:41 30° NNE
USA 281 4.5 14:49:00 18° NE 14:51:15 21° NNE 14:55:54 10° NNW
GEOS 3 Rocket 4.0 14:47:48 20° ENE 14:51:20 51° SE 14:56:34 10° SSW
[s.n.66827] 2.5 14:49:11 10° NNW 14:51:12 30° NNE 14:51:12 30° NNE
[s.n.66826] 2.5 14:49:41 10° NNW 14:51:42 30° NNE 14:51:42 30° NNE
ATLAS CENTAUR R/B 4.4 14:51:22 10° W 14:52:40 12° WSW 14:53:56 10° SW
[s.n.66825] 2.5 14:50:07 10° NNW 14:52:08 31° NNE 14:52:08 31° NNE
[s.n.66824] 2.5 14:50:38 10° NNW 14:52:38 31° NNE 14:52:38 31° NNE
[s.n.66823] 2.5 14:51:09 10° NNW 14:53:08 31° NNE 14:53:08 31° NNE
Cosmos 1844 Rocket 3.6 14:48:56 10° NNW 14:53:47 28° NE 14:55:40 23° ENE
[s.n.66822] 2.5 14:51:38 10° NNW 14:53:38 31° NNE 14:53:38 31° NNE
[s.n.66821] 2.5 14:52:06 10° NNW 14:54:05 31° NNE 14:54:05 31° NNE
Cosmos 1980 Rocket 3.2 14:50:27 10° SSE 14:54:57 25° ESE 14:56:11 23° E
Meteor 1-25 Rocket 4.3 14:49:38 10° NNW 14:55:31 88° WSW 15:01:18 10° S
Meteor 1-5 Rocket 4.0 14:50:35 10° N 14:55:55 67° ENE 15:01:20 10° SSE
Cosmos 1544 Rocket 4.1 14:53:02 10° SSW 14:57:24 60° WNW 15:01:49 10° N
AQUARIUS 4.0 14:53:22 10° SSE 14:57:47 83° ENE 15:02:13 10° NNW
Cosmos 1354 Rocket 4.2 14:53:55 10° S 14:59:00 52° ESE 15:02:16 22° NE
Resurs 1-3 4.0 14:56:27 10° SE 15:00:26 39° ENE 15:04:27 10° N
Cosmos 2263 Rocket 2.1 14:56:00 10° NNW 15:01:42 77° NE 15:07:24 10° SE
Lacrosse 5 rocket 1.1 14:59:12 10° W 15:02:54 62° N 15:04:06 38° ENE
USA 238 DEB 4.4 14:59:11 10° S 15:04:21 29° ESE 15:06:19 25° E
USA 238 4.4 14:59:19 10° S 15:04:29 29° ESE 15:06:26 24° E
Cosmos 1777 Rocket 3.9 15:00:28 10° SSW 15:05:44 87° ESE 15:09:43 18° NNE
Spot 4 Rocket 4.1 15:00:55 10° SE 15:05:50 51° ENE 15:10:49 10° N
Lacrosse 4 Rocket 3.0 15:02:45 10° W 15:06:06 24° NNW 15:08:19 16° NNE
USA 215 3.3 15:06:28 24° E 15:10:39 74° N 15:17:11 10° W
Cosmos 1726 Rocket 3.7 15:07:33 10° S 15:12:05 57° E 15:14:56 22° NNE
Okean 1-7 Rocket 4.2 15:08:11 10° NNW 15:12:31 57° W 15:16:47 10° S
Cosmos 44 Rocket 4.0 15:08:47 10° NW 15:13:33 39° NNE 15:14:56 33° ENE
CZ-2D R/B 3.8 15:13:23 10° S 15:16:26 46° W 15:19:31 10° NNW
NOSS 2-3 (E) 4.1 15:13:45 10° S 15:16:49 31° SE 15:16:49 31° SE
NOSS 2-3 (D) 4.2 15:14:29 10° S 15:17:27 29° SE 15:17:27 29° SE
Cosmos 2227 Rocket 2.8 15:12:21 10° NW 15:17:53 57° WSW 15:23:24 10° SSE
Cosmos 1943 Rocket 4.0 15:15:05 10° NNW 15:18:09 15° N 15:19:30 14° NNE
Cosmos 923 Rocket 4.2 15:13:37 10° NNW 15:18:41 48° NE 15:20:52 30° ESE
SKYMED 2 3.8 15:21:36 43° ENE 15:22:11 46° E 15:26:21 10° S
Cosmos 1461 2.6 15:19:34 10° SW 15:23:29 87° SE 15:24:22 53° NE
Cosmos 1933 3.2 15:20:18 10° SSW 15:24:08 78° WNW 15:26:21 24° N
YAOGAN 1 2.4 15:20:07 10° SSE 15:24:20 63° ENE 15:28:33 10° N
Cosmos 2369 Rocket 4.1 15:20:29 10° WNW 15:24:39 20° NNW 15:28:01 13° NNE
Cosmos-2242 4.2 15:21:34 10° SSE 15:23:49 26° SE 15:23:49 26° SE
Cosmos 1486 Rocket 4.5 15:20:21 10° SW 15:25:30 58° WNW 15:29:25 18° NNE
BREEZE-M DEB (TANK) 4.0 15:23:23 10° WSW 15:26:38 43° S 15:33:52 15° ESE
Cosmos 1655 Rocket 4.0 15:20:28 10° NNW 15:26:46 86° WSW 15:32:58 10° S
Meteor 2-10 4.0 15:26:40 10° NNW 15:32:02 81° ENE 15:37:33 10° SSE
NOAA 15 4.5 15:28:06 10° SSE 15:33:24 82° ENE 15:38:43 10° NNW
Cosmos 1697 Rocket 2.6 15:29:20 10° SSW 15:34:56 82° ESE 15:37:32 34° NE
Cosmos 990 Rocket 3.8 15:31:51 10° SSW 15:36:59 83° ESE 15:39:11 36° NNE
Cosmos 2278 Rocket 4.0 15:34:03 10° NNW 15:37:27 16° N 15:38:10 16° NNE
Cosmos 1953 Rocket 3.8 15:34:11 10° NNW 15:38:37 69° W 15:43:02 10° S
Aureole 1 Rocket 3.7 15:34:25 10° S 15:38:54 48° ESE 15:39:12 48° E
MOS 1 Rocket 4.3 15:34:22 10° S 15:39:14 52° W 15:44:22 10° NNW
NOSS 2-2 (D) 3.8 15:36:22 10° W 15:39:04 36° NW 15:39:04 36° NW
Cosmos 494 Rocket 4.4 15:39:31 10° NNW 15:44:00 42° NE 15:44:00 42° NE
ARIANE 5 R/B 4.1 15:40:50 10° SSW 15:45:30 36° W 15:50:15 10° NNW
Radarsat Rocket 4.5 15:40:51 10° SSE 15:48:55 90° WSW 15:56:03 10° NNW
Resurs 01 Rocket 3.4 15:52:22 20° N 15:52:22 20° N 15:53:50 10° N
Cosmos 1680 Rocket 3.4 15:46:03 10° NNW 15:51:14 61° ENE 15:51:29 60° ENE
USA 81 4.1 15:46:41 10° N 15:51:59 80° W 15:57:14 10° S
NOAA 6 3.8 15:47:29 10° SSE 15:52:35 81° ENE 15:57:42 10° NNW
NOSS 3-2 (A) 3.9 15:47:16 10° W 15:52:38 53° NNW 15:55:04 35° NNE
NOSS 3-2 (C) 3.3 15:48:29 10° SW 15:53:49 78° NW 15:55:51 44° NE
IRAS Rocket 4.2 15:51:40 10° SSE 15:57:09 81° WSW 16:02:40 10° NNW
Meteor 2-2 Rocket 4.1 15:52:41 10° S 15:58:14 65° E 15:58:58 59° ENE
Cosmos 1844 3.9 15:52:49 10° NNW 15:57:58 49° NE 15:57:58 49° NE
Gbstr 26 Del rocket 3.9 15:54:48 10° SW 15:57:35 33° SSW 15:57:35 33° SSW
CZ-2D R/B 4.2 15:56:48 10° S 16:00:53 52° W 16:04:58 10° NNW
SPOT 1/Viking Rocket 4.4 15:57:05 10° S 16:02:08 51° W 16:07:14 10° NNW
SL-19 R/B 4.4 15:59:42 10° S 16:05:07 72° WSW 16:10:54 10° NNW
Cosmos 2082 3.9 15:59:30 10° NW 16:05:13 73° WSW 16:08:44 24° SSE
PSLV R/B 3.9 16:06:53 37° SSW 16:08:14 59° WSW 16:12:17 10° NNW
COSMO-SKYMED 1 4.0 16:12:53 27° SSW 16:12:53 27° SSW 16:14:47 10° SSW
Cosmos 2227 4.1 16:08:20 10° NNW 16:13:46 70° NNE 16:13:46 70° NNE
Cosmos 2058 Rocket 3.5 16:09:53 10° SSW 16:13:33 58° SSW 16:13:33 58° SSW
Meteor 2-11 Rocket 4.3 16:08:43 10° NNW 16:14:57 86° E 16:21:06 10° SSE
Meteor 1-26 Rocket 4.0 16:17:42 10° SSW 16:23:06 85° WNW 16:23:10 85° NW
Cosmos 1553 Rocket 3.9 16:21:57 10° S 16:28:08 90° S 16:30:07 47° N
GEOS 3 Rocket 4.0 16:28:51 54° N 16:29:22 56° NNW 16:34:38 10° WSW
SL-16 R/B 4.5 16:24:43 10° N 16:29:31 24° NW 16:34:19 10° W
Cosmos 2219 4.3 16:25:09 10° NW 16:30:32 43° WSW 16:35:51 10° S
USA 281 3.8 16:35:52 42° NNE 16:35:52 42° NNE 16:40:46 10° NNW
CENTAUR R/B 3.5 16:29:10 10° WNW 16:35:40 44° N 16:36:56 41° NNE
Cosmos 1980 Rocket 2.3 16:32:44 10° SW 16:37:58 72° W 16:37:58 72° W
Cosmos 1844 Rocket 3.0 16:32:43 10° NNW 16:37:20 60° NNW 16:37:20 60° NNW
Lacrosse 5 rocket 3.6 16:36:29 10° WNW 16:37:41 19° WNW 16:37:41 19° WNW
Cosmos 1745 Rocket 3.9 16:34:15 10° NNW 16:40:05 79° NNW 16:40:05 79° NNW
Cosmos 2263 Rocket 4.3 16:40:33 10° NW 16:45:05 25° WSW 16:49:37 10° SSW
Lacrosse 4 Rocket 4.2 16:43:24 10° NW 16:43:48 11° NNW 16:43:48 11° NNW
USA 215 3.2 16:53:49 83° SW 16:53:49 83° SW 17:00:16 10° WNW
USA 238 DEB 3.6 16:48:15 10° SW 16:53:47 72° WSW 16:53:47 72° WSW
USA 238 3.6 16:48:21 10° SW 16:53:53 72° WSW 16:53:53 72° WSW
Cosmos 1943 Rocket 4.3 16:59:28 10° NNW 17:00:59 16° N 17:00:59 16° N
Cosmos 2369 Rocket 4.4 17:07:33 10° NNW 17:09:46 15° N 17:09:46 15° N
Cosmos 1697 Rocket 4.2 17:14:35 10° W 17:19:16 30° NW 17:19:16 30° NW
Cosmos 2278 Rocket 4.4 17:18:37 10° NNW 17:19:58 16° NNW 17:19:58 16° NNW
CENTAUR R/B 4.3 18:20:23 10° NW 18:24:02 32° NW 18:24:02 32° NW
